Weather History for KMTH - July, 2013

Change the Weather History Date:

Wednesday, July 24, 2013

  Actual Average Record
Temperature  
Mean Temperature 86 °F 85 °F  
Max Temperature 91 °F 91 °F 94 °F (2011)
Min Temperature 80 °F 79 °F 75 °F (2001)
Degree Days  
Heating Degree Days 0 0  
Month to date heating degree days 0 0  
Since 1 June heating degree days 0 0  
Since 1 July heating degree days 0 0  
Cooling Degree Days 21 20  
Month to date cooling degree days 474 480  
Year to date cooling degree days 2920 2617  
Since 1 June cooling degree days 1090 1074  
Growing Degree Days 36 (Base 50)    
Moisture  
Dew Point 72 °F    
Average Humidity 68    
Maximum Humidity 79    
Minimum Humidity 56    
Precipitation  
Precipitation 0.00 in 0.14 in 0.21 in (2015)
Month to date precipitation 6.71 3.22  
Year to date precipitation 35.72 20.77  
Snow  
Snow 0.00 in - - ()
Month to date snowfall 0.0  
Since 1 June snowfall 0.0  
Since 1 July snowfall 0.0  
Snow Depth 0.00 in    
Sea Level Pressure  
Sea Level Pressure 30.00 in    
Wind  
Wind Speed 2 mph (West)    
Max Wind Speed 8 mph    
Max Gust Speed 13 mph    
Visibility 10 miles    
Events      
T = Trace of Precipitation, MM = Missing Value Source: NWS Daily Summary

Daily Weather History Graph

Daily Weather History Graph

Search for Another Location

Airport or City:

Trip Planner

Search our weather history database for the weather conditions in past years. The results will help you decide how hot, cold, wet, or windy it might be!

Date:

Astronomy

Jul. 24, 2013 Rise Set
Actual Time 6:48 AM EDT 8:12 PM EDT
Civil Twilight 6:23 AM EDT 8:37 PM EDT
Nautical Twilight 5:54 AM EDT 9:06 PM EDT
Astronomical Twilight 5:23 AM EDT 9:37 PM EDT
Moon 9:41 PM EDT (7/24) 8:47 AM EDT (7/24)
Length of Visible Light 14h 13m
Length of Day
13h 23m
Waning Gibbous, 95% of the Moon is Illuminated
Jul 24
Waning Gibbous
Jul 29
Last Quarter
Aug 6
New
Aug 14
First Quarter
Aug 20
Full

Hourly Weather History & Observations

Time (EDT) Temp. Heat Index Dew Point Humidity Pressure Visibility Wind Dir Wind Speed Gust Speed Precip Events Conditions
12:53 AM 82.9 °F 87.5 °F 71.1 °F 67% 30.04 in 10.0 mi Calm Calm - N/A   Clear
1:53 AM 82.0 °F 86.7 °F 72.0 °F 71% 30.01 in 10.0 mi Calm Calm - N/A   Clear
2:53 AM 82.0 °F 87.4 °F 73.0 °F 74% 29.99 in 10.0 mi Calm Calm - N/A   Clear
3:53 AM 82.0 °F 86.7 °F 72.0 °F 71% 29.97 in 10.0 mi Calm Calm - N/A   Clear
4:53 AM 82.0 °F 87.4 °F 73.0 °F 74% 29.96 in 10.0 mi Variable 3.5 mph - N/A   Clear
5:53 AM 82.0 °F 87.4 °F 73.0 °F 74% 29.99 in 10.0 mi Calm Calm - N/A   Scattered Clouds
6:53 AM 80.1 °F 84.2 °F 73.0 °F 79% 30.00 in 10.0 mi Calm Calm - N/A   Partly Cloudy
7:36 AM 82.4 °F 88.2 °F 73.4 °F 74% 30.00 in 10.0 mi Calm Calm - N/A   Mostly Cloudy
7:45 AM 82.4 °F 88.2 °F 73.4 °F 74% 30.00 in 10.0 mi Calm Calm - N/A   Scattered Clouds
7:53 AM 84.0 °F 90.2 °F 73.0 °F 69% 30.00 in 10.0 mi Calm Calm - N/A   Partly Cloudy
8:53 AM 86.0 °F 92.2 °F 72.0 °F 63% 30.00 in 10.0 mi Calm Calm - N/A   Clear
9:53 AM 87.1 °F 93.6 °F 72.0 °F 61% 30.01 in 10.0 mi Variable 3.5 mph - N/A   Clear
10:53 AM 88.0 °F 95.6 °F 73.0 °F 61% 30.02 in 10.0 mi Variable 3.5 mph - N/A   Clear
11:53 AM 87.1 °F 93.6 °F 72.0 °F 61% 30.03 in 10.0 mi Variable 3.5 mph - N/A   Mostly Cloudy
12:53 PM 87.1 °F 94.5 °F 73.0 °F 63% 30.03 in 10.0 mi SW 3.5 mph - N/A   Overcast
1:34 PM 87.8 °F 95.6 °F 73.4 °F 62% 30.02 in 10.0 mi SW 3.5 mph - N/A   Mostly Cloudy
1:53 PM 88.0 °F 95.6 °F 73.0 °F 61% 30.02 in 10.0 mi Calm Calm - N/A   Mostly Cloudy
2:53 PM 90.0 °F 97.9 °F 73.0 °F 57% 30.00 in 10.0 mi Variable 4.6 mph - N/A   Partly Cloudy
3:53 PM 90.0 °F 97.9 °F 73.0 °F 57% 29.99 in 10.0 mi WNW 5.8 mph - N/A   Partly Cloudy
4:53 PM 91.0 °F 99.3 °F 73.0 °F 55% 29.97 in 10.0 mi Variable 4.6 mph - N/A   Clear
5:53 PM 89.1 °F 96.0 °F 72.0 °F 57% 29.97 in 10.0 mi Calm Calm - N/A   Partly Cloudy
6:53 PM 88.0 °F 94.7 °F 72.0 °F 59% 29.97 in 10.0 mi WNW 4.6 mph - N/A   Clear
7:53 PM 87.1 °F 92.8 °F 71.1 °F 59% 29.99 in 10.0 mi West 3.5 mph - N/A   Clear
8:53 PM 84.9 °F 90.1 °F 71.1 °F 63% 29.98 in 10.0 mi WNW 4.6 mph - N/A   Clear
9:53 PM 84.0 °F 89.6 °F 72.0 °F 67% 29.99 in 10.0 mi NW 3.5 mph - N/A   Clear
10:53 PM 84.0 °F 89.6 °F 72.0 °F 67% 30.00 in 10.0 mi Calm Calm - N/A   Partly Cloudy
11:53 PM 84.0 °F 89.6 °F 72.0 °F 67% 30.00 in 10.0 mi Calm Calm - N/A   Scattered Clouds